Dati Storici

Data ora Umidita' aria (%) Temperatura aria (°C) Rad globale (W/m²) Gonioanemometro (°) Tacoanemometro (m/s) Pioggia (mm)
09-06-2020 05:30 98 % 15.225 -76.547 0.869 0 0
09-06-2020 05:20 98 % 15.23 -79.469 0.523 0 0
09-06-2020 05:10 98 % 15.213 -76.072 1.288 0 0
09-06-2020 05:00 98 % 15.201 -68.125 0.715 0 0
09-06-2020 04:50 98 % 15.208 -80.605 1.444 0 0
09-06-2020 04:40 98 % 15.19 -57.61 1.249 0 0
09-06-2020 04:30 98 % 15.212 -79.95 1.631 0 0
09-06-2020 04:20 98 % 15.169 -80 1.405 0 0
09-06-2020 04:10 98 % 15.138 -79.99 2.61 0 0
09-06-2020 04:00 98 % 15.125 -80.689 1.948 0 0
09-06-2020 03:50 98 % 15.116 -55.636 1.705 0 0
09-06-2020 03:40 98 % 15.168 -79.741 1.281 0 0
09-06-2020 03:30 98 % 15.171 -77.175 1.189 0 0
09-06-2020 03:20 98 % 15.225 -54.903 1.128 0 0
09-06-2020 03:10 98 % 15.223 -79.703 1.969 0 0
09-06-2020 03:00 98 % 15.27 -80.108 1.817 0 0
09-06-2020 02:50 98 % 15.281 -49.319 1.253 0 0
09-06-2020 02:40 98 % 15.298 -48.415 1.332 0 0
09-06-2020 02:30 98 % 15.245 -50.796 0.581 0 0
09-06-2020 02:20 98 % 15.222 -79.076 2.295 0 0

I dati sono presentati in modo automatico a scopo informativo. In seguito a verifica i dati possono subire modifiche o essere invalidati e non riportati negli archivi definitivi.